Resia Pass, Italy

8:40 AM CEST on May 24, 2018 (GMT +0200)
Resia Pass

Weather History for LIVE - December, 2013

Change the Weather History Date:

Wednesday, December 4, 2013

  Actual Average Record
Temperature  
Mean Temperature 39 °F -  
Max Temperature 46 °F 36 °F 50 °F (2015)
Min Temperature 32 °F 24 °F 12 °F (2008)
Degree Days  
Heating Degree Days 26    
Moisture  
Dew Point 21 °F    
Average Humidity 55    
Maximum Humidity 70    
Minimum Humidity 29    
Precipitation  
Precipitation 0.00 in - - ()
Sea Level Pressure  
Sea Level Pressure 30.24 in    
Wind  
Wind Speed 6 mph ()    
Max Wind Speed 8 mph    
Max Gust Speed -    
Averages and records for this station are not official NWS values.
T = Trace of Precipitation, MM = Missing Value Source: Averaged Metar Reports

Daily Weather History Graph

Daily Weather History Graph

Search for Another Location

Airport or City:

Astronomy

Dec. 04, 2013 Rise Set
Actual Time 7:45 AM CET 4:30 PM CET
Civil Twilight 7:11 AM CET 5:05 PM CET
Nautical Twilight 6:32 AM CET 5:43 PM CET
Astronomical Twilight 5:56 AM CET 6:19 PM CET
Moon 8:56 AM CET (12/4) 6:24 PM CET (12/4)
Length of Visible Light 9h 54m
Length of Day
8h 44m
Waxing Crescent, 3% of the Moon is Illuminated
Dec 4
Waxing Crescent
Dec 9
First Quarter
Dec 17
Full
Dec 25
Last Quarter
Jan 1
New

Hourly Weather History & Observations

Time (CET) Temp. Windchill Dew Point Humidity Pressure Visibility Wind Dir Wind Speed Gust Speed Precip Events Conditions
12:55 AM 32.0 °F 26.4 °F 23.0 °F 69% 30.30 in - NNE 5.8 mph - N/A   Clear
1:55 AM 33.8 °F 27.0 °F 23.0 °F 65% 30.27 in - North 8.1 mph - N/A   Clear
2:55 AM 33.8 °F 27.0 °F 23.0 °F 65% 30.30 in - NNE 8.1 mph - N/A   Clear
3:55 AM 33.8 °F 27.0 °F 23.0 °F 65% 30.30 in - NNE 8.1 mph - N/A   Clear
4:55 AM 33.8 °F 27.0 °F 23.0 °F 65% 30.30 in - NNE 8.1 mph - N/A   Clear
5:55 AM 32.0 °F 24.8 °F 23.0 °F 69% 30.30 in - North 8.1 mph - N/A   Clear
6:55 AM 32.0 °F 24.8 °F 23.0 °F 69% 30.27 in - North 8.1 mph - N/A   Clear
7:55 AM 32.0 °F 24.8 °F 23.0 °F 69% 30.24 in - North 8.1 mph - N/A   Clear
8:55 AM 32.0 °F 24.8 °F 21.2 °F 64% 30.24 in - North 8.1 mph - N/A   Clear
9:55 AM 35.6 °F 29.2 °F 19.4 °F 52% 30.24 in - North 8.1 mph - N/A   Clear
10:55 AM 41.0 °F 35.8 °F 19.4 °F 42% 30.24 in - North 8.1 mph - N/A   Clear
11:55 AM 42.8 °F 38.0 °F 17.6 °F 36% 30.24 in - North 8.1 mph - N/A   Clear
12:55 PM 46.4 °F 42.9 °F 15.8 °F 29% 30.24 in - North 6.9 mph - N/A   Clear
1:55 PM 46.4 °F 42.9 °F 15.8 °F 29% 30.21 in - North 6.9 mph - N/A   Clear
2:55 PM 46.4 °F 44.3 °F 15.8 °F 29% 30.21 in - North 4.6 mph - N/A   Clear
3:55 PM 41.0 °F 39.0 °F 17.6 °F 39% 30.21 in - North 3.5 mph - N/A   Clear
4:55 PM 39.2 °F 37.0 °F 17.6 °F 42% 30.21 in - North 3.5 mph - N/A   Clear
5:55 PM 37.4 °F 33.8 °F 21.2 °F 52% 30.21 in - North 4.6 mph - N/A   Clear
6:55 PM 37.4 °F 33.8 °F 21.2 °F 52% 30.21 in - North 4.6 mph - N/A   Clear
7:55 PM 37.4 °F 34.9 °F 21.2 °F 52% 30.21 in - North 3.5 mph - N/A   Clear
8:55 PM 35.6 °F 30.7 °F 24.8 °F 65% 30.21 in - North 5.8 mph - N/A   Clear
9:55 PM 35.6 °F 30.7 °F 26.6 °F 70% 30.21 in - North 5.8 mph - N/A   Clear
10:55 PM 35.6 °F 30.7 °F 26.6 °F 70% 30.21 in - North 5.8 mph - N/A   Clear
11:55 PM 35.6 °F 29.2 °F 26.6 °F 70% 30.21 in - North 8.1 mph - N/A   Clear